Вернуться в каталог

STARLINK-30178

АктивенСвязьVLEO
NORAD 57447·PAYLOAD·🇺🇸 United States

Запущен Jul 24, 2023 с Cape Canaveral Space Force Station

Loading…

Ближайшие Пролёты (ближайшие 24 часа)

TLE

СвежийSource: CelesTrak SupGP

Эпоха: Sep 15, 2026, 02:37 UTC

1 57447C 23105T   26258.10951389 -.00007764  00000+0 -28128-3 0  2584
2 57447  43.0001 270.2931 0001317 264.9766 285.9627 15.27575700    12

Отслеживайте STARLINK-30178 в реальном времени с AllMySat

Download on the App Store